TimeCXT,TemperatureF,Dew PointF,Humidity,Sea Level PressureIn,VisibilityMPH,Wind Direction,Wind SpeedMPH,Gust SpeedMPH,PrecipitationIn,Events,Conditions,WindDirDegrees,DateUTC
12:00 AM,77,72,79,29.90,,SE,11.5,,,,Overcast,130,2012-11-13 17:00:00
12:00 AM,77.0,71.6,83,29.95,6.2,SE,11.5,-,N/A,,Overcast,130,2012-11-13 17:00:00
1:00 AM,77,72,81,29.88,,SE,10.4,,,,,130,2012-11-13 18:00:00
1:00 AM,77.0,71.6,83,29.92,6.2,SE,10.4,-,N/A,,Overcast,130,2012-11-13 18:00:00
2:00 AM,77.0,73.4,89,29.89,6.2,SE,10.4,-,N/A,,Overcast,140,2012-11-13 19:00:00
3:00 AM,77,73,83,29.85,,SE,10.4,,,,Overcast,130,2012-11-13 20:00:00
3:00 AM,77.0,73.4,89,29.89,6.2,SE,10.4,-,N/A,,Overcast,130,2012-11-13 20:00:00
4:00 AM,76,72,83,29.85,,SE,12.7,,,,,130,2012-11-13 21:00:00
4:00 AM,77.0,71.6,83,29.89,6.2,SE,12.7,-,N/A,,Mostly Cloudy,130,2012-11-13 21:00:00
5:00 AM,75.2,71.6,89,29.89,6.2,SE,11.5,-,N/A,,Mostly Cloudy,130,2012-11-13 22:00:00
6:00 AM,76,72,84,29.88,,SE,11.5,,,,Overcast,130,2012-11-13 23:00:00
6:00 AM,77.0,71.6,83,29.92,6.2,SE,11.5,-,N/A,,Overcast,130,2012-11-13 23:00:00
7:00 AM,78,72,75,29.88,,SE,11.5,,,,,140,2012-11-14 00:00:00
7:00 AM,78.8,71.6,78,29.92,6.2,SE,11.5,-,N/A,,Mostly Cloudy,140,2012-11-14 00:00:00
8:00 AM,78.8,73.4,83,29.95,6.2,SE,13.8,-,N/A,,Overcast,130,2012-11-14 01:00:00
9:00 AM,80,73,74,29.91,,SE,12.7,,,,Overcast,130,2012-11-14 02:00:00
9:00 AM,80.6,73.4,79,29.95,6.2,SE,12.7,-,N/A,,Overcast,130,2012-11-14 02:00:00
10:00 AM,82,73,67,29.91,,SE,12.7,,,,,130,2012-11-14 03:00:00
10:00 AM,82.4,73.4,74,29.95,6.2,SE,12.7,-,N/A,,Overcast,130,2012-11-14 03:00:00
11:00 AM,80.6,73.4,79,29.92,6.2,SE,13.8,-,N/A,,Mostly Cloudy,140,2012-11-14 04:00:00
12:00 PM,80,73,75,29.88,,SE,12.7,,,,Overcast,140,2012-11-14 05:00:00
12:00 PM,80.6,73.4,79,29.92,6.2,SE,12.7,-,N/A,,Overcast,140,2012-11-14 05:00:00
1:00 PM,81,73,70,29.86,,ESE,15.0,,,,,120,2012-11-14 06:00:00
1:00 PM,80.6,73.4,79,29.89,6.2,ESE,15.0,-,N/A,,Overcast,120,2012-11-14 06:00:00
2:00 PM,82.4,73.4,74,29.89,6.2,East,12.7,-,N/A,,Mostly Cloudy,100,2012-11-14 07:00:00
3:00 PM,81,73,71,29.83,,SE,12.7,,,,Overcast,130,2012-11-14 08:00:00
3:00 PM,80.6,73.4,79,29.86,6.2,SE,12.7,-,N/A,,Mostly Cloudy,130,2012-11-14 08:00:00
3:03 PM,80.6,73.4,79,29.86,6.2,SE,10.4,-,N/A,,Mostly Cloudy,130,2012-11-14 08:03:00
3:05 PM,80.6,73.4,79,29.86,6.2,SE,10.4,-,N/A,,Mostly Cloudy,140,2012-11-14 08:05:00
3:15 PM,80.6,73.4,79,29.86,6.2,SE,11.5,-,N/A,,Mostly Cloudy,140,2012-11-14 08:15:00
4:00 PM,80,74,77,29.82,,SE,10.4,,,,,130,2012-11-14 09:00:00
4:00 PM,80.6,73.4,79,29.86,6.2,SE,10.4,-,N/A,,Mostly Cloudy,130,2012-11-14 09:00:00
5:00 PM,78.8,73.4,83,29.86,6.2,SSE,8.1,-,N/A,,Mostly Cloudy,150,2012-11-14 10:00:00
5:18 PM,78.8,73.4,83,29.86,6.2,SE,9.2,-,N/A,,Scattered Clouds,140,2012-11-14 10:18:00
5:34 PM,78.8,73.4,83,29.89,6.2,SSE,8.1,-,N/A,,Mostly Cloudy,150,2012-11-14 10:34:00
6:00 PM,78,74,83,29.85,,SSE,8.1,,,,Overcast,150,2012-11-14 11:00:00
6:00 PM,78.8,73.4,83,29.89,6.2,SSE,8.1,-,N/A,,Mostly Cloudy,150,2012-11-14 11:00:00
6:59 PM,77.0,73.4,89,29.89,6.2,SE,8.1,-,N/A,,Scattered Clouds,140,2012-11-14 11:59:00
7:00 PM,77,73,85,29.87,,SE,8.1,,,,,140,2012-11-14 12:00:00
7:00 PM,77.0,73.4,89,29.92,6.2,SE,8.1,-,N/A,,Scattered Clouds,140,2012-11-14 12:00:00
7:21 PM,77.0,73.4,89,29.92,6.2,SSE,6.9,-,N/A,,Mostly Cloudy,150,2012-11-14 12:21:00
8:00 PM,77.0,73.4,89,29.92,6.2,SE,9.2,-,N/A,,Overcast,140,2012-11-14 13:00:00
9:00 PM,78,74,84,29.91,,SE,10.4,,,,Overcast,130,2012-11-14 14:00:00
9:00 PM,77.0,73.4,89,29.95,6.2,SE,10.4,-,N/A,,Mostly Cloudy,130,2012-11-14 14:00:00
10:00 PM,77,74,89,29.91,,SE,10.4,,,,,140,2012-11-14 15:00:00
10:00 PM,77.0,75.2,94,29.95,6.2,SE,10.4,-,N/A,,Overcast,140,2012-11-14 15:00:00
11:00 PM,77.0,73.4,89,29.95,6.2,SE,10.4,-,N/A,,Mostly Cloudy,140,2012-11-14 16:00:00